DW6399 Weather Reports


time (UTC)temp
C
wind
direction
speed
KPH
gust
KPH
rain 1hr
cm
rain 24hr
cm
rain mn
cm
humidity
%
barometer
mb
20260508041804 1 281 4.8 9.7 0.05 0.58 0.05 94 1019.7
20260508040904 1 298 6.4 11.3 0.05 0.58 0.05 94 1019.3
20260508040004 1 301 4.8 11.3 0.00 0.51 0.00 94 1018.5
20260508035404 0 305 6.4 9.7 0.00 0.51 0.00 94 1017.1
20260508034504 0 302 4.8 11.3 0.00 0.51 0.00 94 1020.1
20260508033604 0 292 4.8 8.0 0.00 0.51 0.00 94 1019.6
20260508032725 0 283 6.4 11.3 0.00 0.51 0.00 94 1019.4
20260508031825 0 289 4.8 9.7 0.00 0.51 0.00 94 1019.4
20260508030904 0 295 4.8 11.3 0.00 0.51 0.00 94 1019.3
20260508030004 0 299 4.8 12.9 0.00 0.51 0.00 94 1019.3
20260508025404 0 289 4.8 8.0 0.00 0.51 0.00 94 1019.3
20260508024525 0 282 4.8 9.7 0.00 0.51 0.00 94 1019.2
20260508023604 0 293 4.8 9.7 0.00 0.51 0.00 94 1019.0
20260508022704 -1 301 3.2 6.4 0.00 0.51 0.00 94 1019.0
20260508021804 -1 296 3.2 6.4 0.00 0.51 0.00 93 1018.9
20260508020904 -1 296 1.6 3.2 0.00 0.51 0.00 93 1018.9
20260508020004 -1 296 1.6 4.8 0.00 0.51 0.00 93 1018.7
20260508015404 -1 296 1.6 4.8 0.00 0.51 0.00 93 1018.6
20260508014504 -1 296 3.2 4.8 0.00 0.51 0.00 93 1018.6
20260508013625 0 296 3.2 6.4 0.00 0.51 0.00 93 1018.6
20260508012704 0 307 3.2 6.4 0.00 0.51 0.00 94 1018.5
20260508011804 0 307 4.8 6.4 0.00 0.51 0.00 94 1018.4
20260508010904 0 303 4.8 9.7 0.00 0.51 0.00 94 1018.3
20260508010025 0 304 4.8 11.3 0.00 0.51 0.00 94 1018.2
20260508005404 0 298 4.8 11.3 0.00 0.51 0.00 94 1018.2
20260508004525 0 290 4.8 11.3 0.00 0.51 0.00 94 1018.2
20260508003604 0 290 4.8 9.7 0.00 0.51 0.00 93 1018.0
20260508002704 0 302 4.8 9.7 0.00 0.51 0.00 94 1018.1
20260508001825 0 306 4.8 6.4 0.00 0.51 0.00 94 1018.0
20260508000925 0 307 4.8 8.0 0.00 0.51 0.00 93 1017.9
20260508000004 0 316 4.8 8.0 0.00 0.51 0.00 93 1017.8
20260507235404 0 319 4.8 8.0 0.00 0.51 0.00 93 1017.8
20260507234525 0 308 6.4 11.3 0.00 0.51 0.00 93 1017.7
20260507233625 0 304 6.4 12.9 0.00 0.51 0.00 93 1017.6
20260507232726 0 296 6.4 12.9 0.00 0.51 0.00 93 1017.5
20260507231825 0 296 6.4 11.3 0.00 0.51 0.00 94 1017.4
20260507230904 0 292 4.8 11.3 0.00 0.51 0.00 93 1017.4
20260507230004 0 286 4.8 6.4 0.00 0.51 0.00 93 1017.4
20260507225425 0 286 4.8 9.7 0.00 0.51 0.00 93 1017.3
20260507224504 0 283 4.8 6.4 0.00 0.51 0.00 93 1017.1
20260507223624 0 308 3.2 6.4 0.00 0.51 0.00 93 1017.0
20260507222704 0 308 4.8 6.4 0.00 0.51 0.00 93 1017.0
20260507221824 0 308 4.8 8.0 0.00 0.51 0.00 93 1016.9
20260507220904 0 313 4.8 6.4 0.00 0.51 0.00 93 1016.8
20260507220004 0 315 3.2 6.4 0.00 0.51 0.00 93 1016.6
20260507215425 0 315 4.8 6.4 0.00 0.51 0.00 93 1016.6
20260507214503 0 315 3.2 6.4 0.00 0.51 0.00 93 1016.5
20260507213625 0 315 4.8 6.4 0.00 0.51 0.00 93 1016.5
20260507212704 0 315 4.8 8.0 0.00 0.51 0.00 93 1016.4
20260507211804 0 316 1.6 8.0 0.00 0.51 0.00 93 1016.3
20260507210924 0 0 0.0 0.0 0.00 0.51 0.00 93 1016.2
20260507210006 0 0 0.0 0.0 0.03 0.51 0.00 93 1016.1
20260507205404 0 0 0.0 0.0 0.03 0.51 0.51 93 1016.1
20260507204504 0 300 1.6 3.2 0.08 0.51 0.51 93 1016.0
20260507203625 0 300 3.2 4.8 0.13 0.51 0.51 92 1016.0
20260507202703 0 300 3.2 4.8 0.18 0.51 0.51 92 1015.9
20260507201804 0 304 3.2 6.4 0.23 0.51 0.51 92 1015.8
20260507200904 0 334 1.6 4.8 0.25 0.51 0.51 92 1015.8
20260507200004 0 334 3.2 4.8 0.23 0.48 0.51 92 1015.7
20260507195403 0 334 4.8 8.0 0.25 0.48 0.48 92 1015.7
20260507194504 0 335 6.4 9.7 0.20 0.43 0.43 92 1015.7
20260507193603 0 334 8.0 14.5 0.15 0.38 0.38 92 1015.6
20260507192704 0 330 8.0 14.5 0.13 0.33 0.33 92 1015.5
20260507191803 1 327 8.0 12.9 0.08 0.28 0.28 92 1015.4
20260507190904 1 328 8.0 14.5 0.08 0.25 0.25 92 1015.4
20260507190025 1 333 11.3 16.1 0.10 0.25 0.25 92 1015.4
20260507185403 0 331 11.3 16.1 0.10 0.23 0.23 92 1015.3
20260507184504 0 332 11.3 17.7 0.15 0.23 0.23 92 1015.3
20260507183603 0 326 11.3 16.1 0.15 0.23 0.23 91 1015.2
20260507182703 0 322 9.7 16.1 0.13 0.20 0.20 91 1015.2
20260507181803 0 320 11.3 19.3 0.13 0.20 0.20 90 1015.1
20260507180903 0 319 12.9 17.7 0.13 0.18 0.18 90 1015.2
20260507180025 1 315 9.7 16.1 0.10 0.15 0.15 89 1015.2
20260507175404 1 308 8.0 16.1 0.08 0.13 0.13 89 1015.2
20260507174503 1 297 6.4 12.9 0.03 0.08 0.08 87 1015.1
20260507173604 2 276 4.8 14.5 0.03 0.08 0.08 84 1015.1
20260507172703 3 240 3.2 12.9 0.03 0.08 0.08 83 1015.0
20260507171825 4 213 4.8 14.5 0.03 0.08 0.08 81 1014.9
20260507170903 5 295 1.6 6.4 0.00 0.05 0.05 80 1014.6
20260507170004 5 359 3.2 6.4 0.00 0.05 0.05 79 1014.2
20260507165404 5 7 3.2 6.4 0.00 0.05 0.05 78 1014.0
20260507164504 5 18 3.2 11.3 0.00 0.05 0.05 76 1014.0
20260507163603 6 56 3.2 14.5 0.00 0.05 0.05 75 1013.8
20260507162704 6 54 3.2 11.3 0.00 0.05 0.05 73 1013.7
20260507161803 6 67 3.2 11.3 0.00 0.05 0.05 72 1013.5
20260507160904 6 15 1.6 6.4 0.00 0.05 0.05 70 1013.4
20260507160004 6 349 1.6 6.4 0.00 0.05 0.05 69 1013.4
20260507155404 6 353 1.6 8.0 0.00 0.05 0.05 69 1013.3
20260507154504 7 24 1.6 8.0 0.00 0.05 0.05 67 1013.4
20260507153604 7 61 1.6 4.8 0.00 0.05 0.05 66 1013.4
20260507152703 7 61 0.0 6.4 0.00 0.05 0.05 65 1013.3
20260507151803 7 61 1.6 6.4 0.00 0.05 0.05 63 1013.4
20260507150925 7 88 3.2 6.4 0.00 0.05 0.05 63 1013.5
20260507150004 7 88 3.2 11.3 0.00 0.05 0.05 64 1013.5
20260507145404 7 132 3.2 8.0 0.00 0.05 0.05 66 1013.5
20260507144504 7 142 4.8 11.3 0.00 0.05 0.05 67 1013.5
20260507143603 7 133 4.8 12.9 0.00 0.05 0.05 69 1013.6
20260507142724 7 144 4.8 12.9 0.00 0.05 0.05 69 1013.6
20260507141803 6 146 3.2 9.7 0.00 0.05 0.05 72 1013.6
20260507140903 6 207 1.6 6.4 0.00 0.05 0.05 72 1013.6
20260507140025 5 303 1.6 6.4 0.00 0.05 0.05 75 1013.6
20260507135403 5 333 4.8 6.4 0.00 0.05 0.05 73 1013.6
20260507134503 5 333 9.7 16.1 0.00 0.05 0.05 78 1013.6
20260507133604 4 316 12.9 20.9 0.00 0.05 0.05 78 1014.0
20260507132703 4 311 12.9 19.3 0.00 0.05 0.05 79 1014.2
20260507131803 5 316 9.7 17.7 0.03 0.05 0.05 80 1014.1
20260507130903 5 327 9.7 17.7 0.03 0.05 0.05 80 1014.0
20260507130025 5 335 6.4 12.9 0.05 0.05 0.05 81 1014.1
20260507125403 5 346 4.8 14.5 0.05 0.05 0.05 81 1014.0
20260507124503 5 318 9.7 16.1 0.05 0.05 0.05 85 1013.9
20260507123604 5 331 11.3 20.9 0.05 0.05 0.05 83 1014.0
20260507122705 4 318 11.3 20.9 0.05 0.05 0.05 84 1014.2
20260507121803 4 287 6.4 14.5 0.03 0.03 0.03 82 1014.3
20260507120903 5 222 4.8 9.7 0.03 0.03 0.03 80 1014.4
20260507120004 5 282 4.8 11.3 0.00 0.00 0.00 75 1014.3
20260507115424 5 251 1.6 6.4 0.00 0.00 0.00 76 1014.2
20260507114524 6 316 8.0 22.5 0.00 0.00 0.00 71 1014.1
20260507113603 6 316 4.8 22.5 0.00 0.00 0.00 64 1013.9
20260507112703 7 356 0.0 4.8 0.00 0.00 0.00 62 1013.7
20260507111803 7 183 6.4 14.5 0.00 0.00 0.00 63 1013.6
20260507110903 7 199 6.4 19.3 0.00 0.00 0.00 63 1013.6
20260507110025 7 291 6.4 19.3 0.00 0.00 0.00 59 1013.5
20260507105403 7 309 3.2 11.3 0.00 0.00 0.00 58 1013.5
20260507104504 7 350 3.2 14.5 0.00 0.00 0.00 62 1013.5
20260507103603 6 8 4.8 8.0 0.00 0.00 0.00 62 1013.5